• Em Portugal
  • Lista de países
  • Para 7 dias
  • Temperatura da água
  • Mapas de satélite
  • Mapa do tempo
  • Widgets de tempo
  • user-avatar
    Iniciar Sessão

    Previsão horária em Tirana

    Hoje, 23 Setembro, Domingo

    Tempo Temperatura Precipitação Vento Pressão Humidade
    00:00 +22°C° 0 mm 1 m/s 756 mmHg 72%
    01:00 +20°C° 0 mm 0 m/s 756 mmHg 70%
    02:00 +20°C° 0 mm 0 m/s 756 mmHg 69%
    03:00 +22°C° 0 mm 1 m/s 756 mmHg 69%
    04:00 +22°C° 0 mm 1 m/s 756 mmHg 68%
    05:00 +23°C° 0 mm 1 m/s 756 mmHg 64%
    06:00 +24°C° 0 mm 1 m/s 756 mmHg 60%
    07:00 +25°C° 0 mm 1 m/s 756 mmHg 56%
    08:00 +27°C° 0 mm 1 m/s 757 mmHg 50%
    09:00 +29°C° 0 mm 1 m/s 757 mmHg 44%
    10:00 +32°C° 0 mm 1 m/s 757 mmHg 37%
    11:00 +32°C° 0 mm 2 m/s 757 mmHg 35%
    12:00 +34°C° 0 mm 2 m/s 756 mmHg 33%
    13:00 +34°C° 0 mm 3 m/s 756 mmHg 31%
    14:00 +34°C° 0 mm 3 m/s 756 mmHg 34%
    15:00 +33°C° 0 mm 3 m/s 756 mmHg 37%
    16:00 +31°C° 0 mm 3 m/s 755 mmHg 39%
    17:00 +29°C° 0 mm 2 m/s 755 mmHg 47%
    18:00 +27°C° 0 mm 1 m/s 755 mmHg 55%
    19:00 +24°C° 0 mm 1 m/s 755 mmHg 62%
    20:00 +24°C° 0 mm 1 m/s 756 mmHg 62%
    21:00 +24°C° 0 mm 1 m/s 756 mmHg 62%
    22:00 +24°C° 0 mm 2 m/s 756 mmHg 62%
    23:00 +23°C° 0 mm 2 m/s 755 mmHg 62%

    Amanhã, 24 Setembro, Segunda-feira

    Tempo Temperatura Precipitação Vento Pressão Humidade
    00:00 +23°C° 0 mm 2 m/s 755 mmHg 63%
    01:00 +22°C° 0 mm 3 m/s 755 mmHg 63%
    02:00 +21°C° 0 mm 3 m/s 755 mmHg 62%
    03:00 +21°C° 0 mm 3 m/s 754 mmHg 62%
    04:00 +21°C° 0 mm 3 m/s 754 mmHg 61%
    05:00 +22°C° 0 mm 3 m/s 754 mmHg 57%
    06:00 +24°C° 0 mm 3 m/s 754 mmHg 53%
    07:00 +25°C° 0 mm 3 m/s 754 mmHg 50%
    08:00 +27°C° 0 mm 3 m/s 754 mmHg 45%
    09:00 +29°C° 0 mm 3 m/s 753 mmHg 40%
    10:00 +30°C° 0 mm 3 m/s 753 mmHg 35%
    11:00 +32°C° 0 mm 4 m/s 753 mmHg 34%
    12:00 +33°C° 0 mm 4 m/s 753 mmHg 34%
    13:00 +33°C° 0 mm 4 m/s 753 mmHg 34%
    14:00 +32°C° 0.1 mm 4 m/s 753 mmHg 38%
    15:00 +32°C° 0.1 mm 4 m/s 753 mmHg 43%
    16:00 +30°C° 0.1 mm 4 m/s 753 mmHg 47%
    17:00 +28°C° 0.3 mm 4 m/s 753 mmHg 54%
    18:00 +26°C° 0.3 mm 4 m/s 754 mmHg 61%
    19:00 +22°C° 0.3 mm 4 m/s 755 mmHg 68%
    20:00 +22°C° 0 mm 4 m/s 755 mmHg 66%
    21:00 +21°C° 0 mm 5 m/s 756 mmHg 64%
    22:00 +20°C° 0 mm 5 m/s 757 mmHg 62%
    23:00 +20°C° 0 mm 6 m/s 757 mmHg 59%

    Depois de amanhã, 25 Setembro, Terça-feira

    Tempo Temperatura Precipitação Vento Pressão Humidade
    00:00 +19°C° 0 mm 6 m/s 757 mmHg 57%
    01:00 +17°C° 0 mm 7 m/s 757 mmHg 55%
    02:00 +17°C° 0 mm 7 m/s 757 mmHg 54%
    03:00 +16°C° 0 mm 7 m/s 758 mmHg 53%
    04:00 +16°C° 0 mm 7 m/s 758 mmHg 52%
    05:00 +16°C° 0 mm 7 m/s 758 mmHg 50%
    06:00 +16°C° 0 mm 8 m/s 758 mmHg 47%
    07:00 +16°C° 0 mm 8 m/s 759 mmHg 45%
    08:00 +18°C° 0 mm 8 m/s 759 mmHg 41%
    09:00 +21°C° 0 mm 7 m/s 759 mmHg 36%
    10:00 +23°C° 0 mm 7 m/s 759 mmHg 32%
    11:00 +24°C° 0 mm 7 m/s 759 mmHg 29%
    12:00 +26°C° 0 mm 7 m/s 759 mmHg 27%
    13:00 +27°C° 0 mm 7 m/s 759 mmHg 25%
    14:00 +27°C° 0 mm 7 m/s 759 mmHg 24%
    15:00 +26°C° 0 mm 7 m/s 759 mmHg 24%
    16:00 +26°C° 0 mm 7 m/s 758 mmHg 24%
    17:00 +23°C° 0 mm 7 m/s 759 mmHg 26%
    18:00 +20°C° 0 mm 7 m/s 760 mmHg 28%
    19:00 +17°C° 0 mm 8 m/s 760 mmHg 31%
    20:00 +16°C° 0 mm 8 m/s 761 mmHg 32%
    21:00 +15°C° 0 mm 8 m/s 761 mmHg 34%
    22:00 +13°C° 0 mm 8 m/s 762 mmHg 35%
    23:00 +13°C° 0 mm 8 m/s 762 mmHg 37%

    26 Setembro, Quarta-feira

    Tempo Temperatura Precipitação Vento Pressão Humidade
    00:00 +12°C° 0 mm 7 m/s 762 mmHg 38%
    01:00 +11°C° 0 mm 7 m/s 762 mmHg 40%
    02:00 +11°C° 0 mm 7 m/s 762 mmHg 40%
    03:00 +10°C° 0 mm 7 m/s 763 mmHg 40%
    04:00 +10°C° 0 mm 7 m/s 763 mmHg 41%
    05:00 +10°C° 0 mm 7 m/s 763 mmHg 39%
    06:00 +11°C° 0 mm 7 m/s 763 mmHg 38%
    07:00 +12°C° 0 mm 7 m/s 763 mmHg 36%
    08:00 +15°C° 0 mm 7 m/s 763 mmHg 31%
    09:00 +19°C° 0 mm 6 m/s 763 mmHg 26%
    10:00 +21°C° 0 mm 6 m/s 763 mmHg 21%
    11:00 +22°C° 0 mm 6 m/s 763 mmHg 19%
    12:00 +23°C° 0 mm 6 m/s 763 mmHg 18%
    13:00 +25°C° 0 mm 5 m/s 763 mmHg 16%
    14:00 +25°C° 0 mm 5 m/s 762 mmHg 17%
    15:00 +25°C° 0 mm 5 m/s 762 mmHg 17%
    16:00 +23°C° 0 mm 5 m/s 762 mmHg 17%
    17:00 +21°C° 0 mm 5 m/s 763 mmHg 20%
    18:00 +17°C° 0 mm 5 m/s 763 mmHg 23%
    19:00 +15°C° 0 mm 5 m/s 763 mmHg 26%
    20:00 +14°C° 0 mm 5 m/s 764 mmHg 28%
    21:00 +13°C° 0 mm 5 m/s 764 mmHg 29%
    22:00 +13°C° 0 mm 5 m/s 764 mmHg 31%
    23:00 +12°C° 0 mm 5 m/s 764 mmHg 32%

    27 Setembro, Quinta-feira

    Tempo Temperatura Precipitação Vento Pressão Humidade
    00:00 +12°C° 0 mm 5 m/s 764 mmHg 34%
    01:00 +11°C° 0 mm 4 m/s 764 mmHg 35%
    02:00 +11°C° 0 mm 4 m/s 764 mmHg 36%
    03:00 +11°C° 0 mm 4 m/s 763 mmHg 37%
    04:00 +10°C° 0 mm 4 m/s 763 mmHg 37%
    05:00 +12°C° 0 mm 4 m/s 763 mmHg 36%
    06:00 +13°C° 0 mm 3 m/s 763 mmHg 35%
    07:00 +14°C° 0 mm 3 m/s 763 mmHg 34%
    08:00 +18°C° 0 mm 3 m/s 762 mmHg 28%
    09:00 +21°C° 0 mm 3 m/s 762 mmHg 22%
    10:00 +25°C° 0 mm 3 m/s 762 mmHg 17%
    11:00 +26°C° 0 mm 3 m/s 761 mmHg 16%
    12:00 +27°C° 0 mm 4 m/s 761 mmHg 15%
    13:00 +28°C° 0 mm 5 m/s 760 mmHg 14%
    14:00 +27°C° 0 mm 6 m/s 760 mmHg 17%
    15:00 +27°C° 0 mm 6 m/s 759 mmHg 20%
    16:00 +26°C° 0 mm 6 m/s 759 mmHg 23%
    17:00 +23°C° 0 mm 6 m/s 759 mmHg 29%
    18:00 +20°C° 0 mm 6 m/s 759 mmHg 35%
    19:00 +17°C° 0 mm 5 m/s 759 mmHg 42%
    20:00 +17°C° 0 mm 5 m/s 759 mmHg 38%
    21:00 +17°C° 0 mm 4 m/s 759 mmHg 34%
    22:00 +17°C° 0 mm 4 m/s 759 mmHg 30%
    23:00 +17°C° 0 mm 4 m/s 758 mmHg 29%

    28 Setembro, Sexta-feira

    Tempo Temperatura Precipitação Vento Pressão Humidade
    00:00 +15°C° 0 mm 4 m/s 758 mmHg 27%
    01:00 +15°C° 0 mm 4 m/s 758 mmHg 26%
    02:00 +15°C° 0 mm 4 m/s 757 mmHg 25%
    03:00 +15°C° 0 mm 4 m/s 757 mmHg 23%
    04:00 +15°C° 0 mm 4 m/s 757 mmHg 22%
    05:00 +17°C° 0 mm 4 m/s 757 mmHg 23%
    06:00 +18°C° 0 mm 4 m/s 757 mmHg 23%
    07:00 +19°C° 0 mm 4 m/s 757 mmHg 24%
    08:00 +21°C° 0 mm 3 m/s 757 mmHg 22%
    09:00 +25°C° 0 mm 3 m/s 756 mmHg 20%
    10:00 +28°C° 0 mm 3 m/s 756 mmHg 19%
    11:00 +29°C° 0 mm 3 m/s 756 mmHg 20%
    12:00 +30°C° 0 mm 3 m/s 755 mmHg 20%
    13:00 +31°C° 0 mm 3 m/s 755 mmHg 21%
    14:00 +30°C° 0 mm 4 m/s 755 mmHg 23%
    15:00 +30°C° 0 mm 5 m/s 754 mmHg 24%
    16:00 +29°C° 0 mm 5 m/s 754 mmHg 26%
    17:00 +27°C° 0 mm 5 m/s 754 mmHg 33%
    18:00 +23°C° 0 mm 4 m/s 755 mmHg 39%
    19:00 +21°C° 0 mm 4 m/s 755 mmHg 46%
    20:00 +20°C° 0 mm 3 m/s 755 mmHg 45%
    21:00 +20°C° 0 mm 3 m/s 755 mmHg 45%
    22:00 +19°C° 0 mm 2 m/s 755 mmHg 44%
    23:00 +19°C° 0 mm 2 m/s 755 mmHg 44%
    Mostrar mais